Flag Weather past 2 weeks in Jülich, North Rhine-Westphalia, Germany

Now
40 °F

Overcast.


Feels Like: 37 °F
Forecast: 35 / 46 °F
Wind: 5 mph from East

Location: Noervenich

Current Time: Nov 29, 2014 at 2:17:52 AM

Latest Report: Nov 29, 2014 at 12:00 AM


Visibility: 8 mi

Pressure: 29.91 "Hg

Humidity: 88%

Dew point: 37 °F

Location of JülichLocation

Historic Weather in Jülich — Graph

°F

Jülich temperature yesterday

Maximum temperature yesterday: 45 °F (at 12:00 PM)
Minimum temperature yesterday: 40 °F (at 6:00 PM)
Average temperature yesterday: 42 °F

Past Weeks' High & Low Weather Summary

 TemperatureHumidityPressure
High55 °F (Nov 23, 3:00 PM)100% (Nov 25, 8:00 AM)30.37 "Hg (Nov 25, 8:00 AM)
Low30 °F (Nov 25, 8:00 AM)67% (Nov 24, 3:00 PM)29.54 "Hg (Nov 16, 3:00 PM)
Average45 °F88%29.96 "Hg
* Reported Midnight between Nov 13 and Nov 14 — Midnight between Nov 28 and Nov 29, Jülich, Weather by CustomWeather, © 2014

Note: Actual official high and low records may vary slightly from our data, if they occured in-between our weather recording intervals... More about our weather records

Advertising

Jülich weather history for previous 24 hours

 ConditionsComfort  
Time TempWeatherWind HumidityBarometerVisibility
12:00 AM
Nov 29
40 °FOvercast.5 mph88%29.91 "Hg8 mi
11:00 PM
Nov 28
40 °FOvercast.3 mph87%29.90 "Hg8 mi
9:00 PM40 °FOvercast.5 mph88%29.88 "Hg9 mi
8:00 PM41 °FPassing clouds.2 mph88%29.87 "Hg7 mi
7:00 PMN/APassing clouds.6 mphN/AN/A2 mi
6:00 PM40 °FPassing clouds.3 mph89%29.85 "Hg6 mi
5:00 PM41 °FPassing clouds.3 mph88%29.83 "Hg6 mi
3:00 PM44 °FScattered clouds.3 mph80%29.80 "Hg7 mi
2:00 PM44 °FOvercast.5 mph82%29.80 "Hg6 mi
12:00 PM45 °FOvercast.5 mph79%29.81 "Hg5 mi
11:00 AM44 °FOvercast.5 mph80%29.81 "Hg5 mi
9:00 AM42 °FOvercast.3 mph83%29.79 "Hg6 mi
8:00 AM43 °FOvercast.3 mph85%29.79 "Hg6 mi
6:00 AM42 °FPassing clouds.3 mph88%29.77 "Hg5 mi
5:00 AM42 °FPassing clouds.3 mph90%29.77 "Hg5 mi
3:00 AM42 °FOvercast.3 mph90%29.77 "Hg5 mi
2:00 AM43 °FOvercast.3 mph90%29.76 "Hg5 mi
Weather by CustomWeather, © 2014

See weather overviewHow to use our weather pages